Weather in Bol'shaya Irba

Russia / Krasnoyarsk Krai     54°04′52″N   92°56′12″E
temp.,
°C
wind,
m/s
gust,
m/s
humid.,
%
clouds,
%
prec.,
mm/h
press.,
hPa
HPBL,
m
21 may, sat
sat2101:00+10ene1196100 0.3 101713
04:00+10se119733 0.1 101715
07:00+12sse138394 0.4 1017233
10:00+19ssw474818 0.0 10161148
13:00+23wsw61028100 0.0 10143084
16:00+24w582766 0.0 10122737
19:00+22nw374036 0.0 1013656
22:00+14ene116117 0.0 101410
22 may, sun
sun2201:00+12ne226845 0.0 101314
04:00+11ene22785 0.0 101228
07:00+15ene25613 0.0 1010192
10:00+23e473817 0.0 1007711
13:00+27ese3427100 0.0 10041465
16:00+28ne2225100 0.0 10021747
19:00+24nne2343100 0.0 100152
22:00+19wnw1148100 0.0 100411
23 may, mon
mon2301:00+17ssw0056100 0.0 100511
04:00+15se1164100 0.0 100711
07:00+18ene116199 0.1 1010131
10:00+23sw3344100 0.0 1012956
13:00+26wnw323742 0.0 10131754
16:00+23nw9105398 0.0 10151010
19:00+15nw4776100 0.6 1020487
22:00+12wsw2392100 0.8 1022196
24 may, tue
tue2401:00+11ssw1294100 0.9 1022151
04:00+11wsw119498 0.1 1022125
07:00+12n118896 0.1 1022277
10:00+17ese127020 0.0 1020605
13:00+24se014611 0.0 10171303
16:00+26nne11415 0.0 10141483
19:00+24nw2353100 0.0 1013202
22:00+17nnw1177100 0.0 101311
25 may, wed
wed2501:00+16n1183100 0.0 101412
04:00+15n0084100 0.0 101411
07:00+17ene0076100 0.1 1015166
10:00+21wsw1164100 0.5 1015677
13:00+23wsw1154100 0.5 10151033
16:00+23ssw2252100 0.0 10141214
19:00+21s1366100 0.0 1015233
22:00+16sse1187100 0.0 101611